Weather reports worldwide

Advertisment
Benson, United Kingdom (3658): temperature & dewpoint: 21.04.2017 00:00:00 - 27.04.2017 00:00:00 (BST)Benson, United Kingdom (3658): temperature -20cm & temperature -100cm: 21.04.2017 00:00:00 - 27.04.2017 00:00:00 (BST)Benson, United Kingdom (3658): wind speed: 21.04.2017 00:00:00 - 27.04.2017 00:00:00 (BST)Benson, United Kingdom (3658): wind direction: 21.04.2017 00:00:00 - 27.04.2017 00:00:00 (BST)Benson, United Kingdom (3658): reduced air pressure: 21.04.2017 00:00:00 - 27.04.2017 00:00:00 (BST)Benson, United Kingdom (3658): visibility: 21.04.2017 00:00:00 - 27.04.2017 00:00:00 (BST)Benson, United Kingdom (3658): precipitation: 21.04.2017 00:00:00 - 27.04.2017 00:00:00 (BST)
Date & Time tt [°C] td [°C] tt -20cm [°C] tt -100cm [°C] ff [km/h] ff [kn] dd ppp [hPa] vv [km] rr [mm]
27.04.2017 00:00:00 -1,7 -2,5 - - 4 2 ENE 1021,8 10 0,0
26.04.2017 23:00:00 -0,2 -0,7 - - 2 1 N 1021,6 10 0,0
26.04.2017 22:00:00 1,6 0,7 - - 2 1 WSW 1021,2 10 0,0
26.04.2017 21:00:00 2,7 1,1 - - 2 1 E 1020,9 10 0,0
26.04.2017 20:00:00 4,7 2,4 - - 5 3 WNW 1020,4 10 0,0
26.04.2017 19:00:00 6,3 1,7 - - 16 9 NE 1019,8 10 0,0
26.04.2017 18:00:00 5,7 1,7 - - 29 16 NE 1019,8 10 0,0
26.04.2017 17:00:00 6,2 2,3 - - 13 7 NNW 1019,4 10 0,6
26.04.2017 16:00:00 9,1 0,2 - - 18 10 NNW 1019,1 10 0,0
26.04.2017 15:00:00 9,3 -0,8 - - 21 11 NNW 1018,7 10 0,0
26.04.2017 14:00:00 8,3 1,3 - - 18 10 NNW 1019,0 10 0,0
26.04.2017 13:00:00 6,5 0,7 - - 13 7 N 1019,1 10 0,2
26.04.2017 12:00:00 7,1 -0,7 - - 21 11 N 1019,1 10 0,0
26.04.2017 11:00:00 6,5 0,8 - - 18 10 N 1018,8 10 0,0
26.04.2017 10:00:00 5,9 1,3 10,0 10,5 15 8 N 1018,7 10 0,0
26.04.2017 09:00:00 4,8 1,0 - - 21 11 N 1018,5 10 0,0
26.04.2017 08:00:00 3,9 1,8 - - 15 8 NNW 1018,2 10 0,0
26.04.2017 07:00:00 2,7 1,1 - - 11 6 NNW 1017,7 10 0,0
26.04.2017 06:00:00 1,5 0,3 - - 8 4 N 1017,3 10 0,0
26.04.2017 05:00:00 0,1 -0,3 - - 8 4 NNW 1017,0 10 0,0
26.04.2017 04:00:00 -0,1 -0,3 - - 5 3 NNW 1017,0 10 0,0
26.04.2017 03:00:00 0,1 0,1 - - 4 2 NW 1017,2 10 0,0
26.04.2017 02:00:00 -0,2 -0,3 - - 2 1 WSW 1017,3 1,6 0,0
26.04.2017 01:00:00 -0,9 -1,1 - - 4 2 S 1017,2 2,4 0,0
26.04.2017 00:00:00 -0,2 -0,5 - - 2 1 SW 1017,1 10 0,0
25.04.2017 23:00:00 0,8 0,8 - - 2 1 S 1016,8 10 0,0
25.04.2017 22:00:00 1,6 1,5 - - 2 1 NNW 1016,4 10 0,0
25.04.2017 21:00:00 2,5 1,7 - - 5 3 NW 1015,9 10 0,6
25.04.2017 20:00:00 3,6 2,2 - - 15 8 N 1015,8 8 1,8
25.04.2017 19:00:00 5,4 1,7 - - 9 5 W 1014,9 10 0,0
25.04.2017 18:00:00 6,7 1,4 - - 5 3 S 1014,4 10 0,2
25.04.2017 17:00:00 8,6 -3,1 - - 18 10 WNW 1014,2 10 0,0
25.04.2017 16:00:00 8,4 -4,0 - - 24 13 NNW 1014,1 10 0,0
25.04.2017 15:00:00 9,9 -5,6 - - 18 10 N 1014,2 10 0,0
25.04.2017 14:00:00 9,0 -6,2 - - 16 9 NNW 1014,5 10 0,0
25.04.2017 13:00:00 8,9 -6,2 - - 18 10 NNW 1014,7 10 0,0
25.04.2017 12:00:00 7,7 -5,0 - - 15 8 NNW 1014,9 10 0,0
25.04.2017 11:00:00 6,3 -4,1 - - 15 8 NW 1014,9 10 0,0
25.04.2017 10:00:00 5,7 -3,4 10,5 10,5 11 6 NNW 1014,8 10 0,0
25.04.2017 09:00:00 4,7 -1,9 - - 13 7 NNW 1014,8 10 0,0
25.04.2017 08:00:00 3,7 -2,5 - - 9 5 WNW 1014,5 10 0,0
25.04.2017 07:00:00 1,9 -2,9 - - 9 5 W 1014,2 10 0,0
25.04.2017 06:00:00 -0,3 -2,9 - - 4 2 W 1013,8 10 0,0
25.04.2017 05:00:00 -1,4 -5,0 - - 4 2 WSW 1013,5 10 0,0
25.04.2017 04:00:00 0,5 -4,1 - - 5 3 W 1013,7 10 0,0
25.04.2017 03:00:00 1,8 -3,9 - - 11 6 W 1013,8 10 0,0
25.04.2017 02:00:00 2,6 -3,7 - - 13 7 WNW 1014,1 10 0,0
25.04.2017 01:00:00 3,4 -4,8 - - 16 9 WNW 1014,4 30 0,0
25.04.2017 00:00:00 4,2 -6,1 - - 21 11 NW 1014,6 10 0,0
24.04.2017 23:00:00 4,6 -4,5 - - 11 6 NW 1014,6 10 0,0
24.04.2017 22:00:00 5,8 -2,5 - - 13 7 NNW 1014,2 10 0,0
24.04.2017 21:00:00 8,1 -2,3 - - 16 9 NW 1013,9 10 0,0
24.04.2017 20:00:00 8,9 2,0 - - 16 9 NW 1013,4 10 0,0
24.04.2017 19:00:00 9,4 5,7 - - 13 7 NW 1013,2 10 0,0
24.04.2017 18:00:00 10,1 4,1 - - 21 11 NNW 1013,3 10 0,0
24.04.2017 17:00:00 12,4 4,4 - - 18 10 W 1012,8 10 0,0
24.04.2017 16:00:00 12,9 4,8 - - 21 11 W 1013,2 10 0,0
24.04.2017 15:00:00 12,9 6,8 - - 15 8 WSW 1014,1 10 0,0
24.04.2017 14:00:00 12,2 6,6 - - 24 13 W 1015,1 10 0,0
24.04.2017 13:00:00 12,4 6,8 - - 11 6 WSW 1015,6 10 0,0
24.04.2017 12:00:00 10,6 7,1 - - 8 4 W 1016,5 10 0,0
24.04.2017 11:00:00 11,4 6,3 - - 11 6 W 1017,0 10 0,0
24.04.2017 10:00:00 9,4 6,7 10,7 10,4 2 1 S 1017,6 10 0,0
24.04.2017 09:00:00 7,8 5,3 - - 4 2 WSW 1017,9 10 0,0
24.04.2017 08:00:00 6,4 5,1 - - 2 1 SSE 1018,5 10 0,0
24.04.2017 07:00:00 2,3 0,9 - - 2 1 SSW 1018,8 10 0,0
24.04.2017 06:00:00 0,5 0,1 - - 2 1 E 1019,1 7 0,0
24.04.2017 05:00:00 0,9 0,2 - - 4 2 SSE 1019,5 12 0,0
24.04.2017 04:00:00 2,3 0,7 - - 4 2 SE 1020,1 16 0,0
24.04.2017 03:00:00 3,4 1,6 - - 2 1 NW 1020,5 18 0,0
24.04.2017 02:00:00 3,1 2,6 - - 4 2 SSE 1021,0 21 0,0
24.04.2017 01:00:00 5,4 3,1 - - 2 1 SSE 1021,6 10 0,0
24.04.2017 00:00:00 4,6 1,8 - - 5 3 SSE 1021,9 10 0,0
23.04.2017 23:00:00 5,5 2,9 - - 2 1 SE 1022,2 29 0,0
23.04.2017 22:00:00 6,6 3,6 - - 4 2 SSE 1022,6 30 0,0
23.04.2017 21:00:00 7,1 5,0 - - 4 2 S 1022,9 30 0,0
23.04.2017 20:00:00 12,0 4,2 - - 2 1 WSW 1022,7 35 0,0
23.04.2017 19:00:00 13,6 3,3 - - 8 4 NNW 1023,2 10 0,0
23.04.2017 18:00:00 14,2 2,4 - - 8 4 WNW 1023,6 30 0,0
23.04.2017 17:00:00 14,7 2,3 - - 13 7 WNW 1024,0 30 0,0
23.04.2017 16:00:00 13,6 3,3 - - 8 4 NNW 1024,8 10 0,0
23.04.2017 15:00:00 13,2 2,5 - - 11 6 W 1025,5 10 0,0
23.04.2017 14:00:00 13,1 3,5 - - 11 6 W 1026,0 10 0,0
23.04.2017 13:00:00 12,0 3,9 - - 11 6 WNW 1026,6 10 0,0
23.04.2017 12:00:00 12,1 3,8 - - 8 4 N 1027,1 10 0,0
23.04.2017 11:00:00 9,9 4,8 - - 5 3 WSW 1027,6 10 0,0
23.04.2017 10:00:00 9,9 5,9 10,9 10,4 8 4 S 1027,9 9 0,0
23.04.2017 09:00:00 8,0 5,6 - - 4 2 W 1028,1 10 0,0
23.04.2017 08:00:00 6,5 4,6 - - 0 0 N 1028,0 8 0,0
23.04.2017 07:00:00 2,2 1,7 - - 5 3 NNE 1028,0 9 0,0
23.04.2017 06:00:00 3,7 3,0 - - 0 0 N 1027,7 11 0,0
23.04.2017 05:00:00 4,2 3,5 - - 2 1 SW 1028,0 10 0,0
23.04.2017 04:00:00 3,2 2,6 - - 0 0 N 1028,1 14 0,0
23.04.2017 03:00:00 1,7 1,5 - - 2 1 NNE 1028,3 12 0,0
23.04.2017 02:00:00 0,8 0,7 - - 4 2 W 1028,2 16 0,0
23.04.2017 01:00:00 3,0 1,8 - - 9 5 NE 1028,3 17 0,0
23.04.2017 00:00:00 4,2 2,4 - - 9 5 N 1028,4 21 0,0
22.04.2017 23:00:00 4,7 1,1 - - 2 1 ENE 1028,2 30 0,0
22.04.2017 22:00:00 6,6 1,9 - - 5 3 WNW 1028,0 30 0,0
22.04.2017 21:00:00 9,0 0,9 - - 8 4 NNE 1027,5 30 0,0
22.04.2017 20:00:00 12,0 1,3 - - 8 4 N 1027,1 30 0,0
22.04.2017 19:00:00 13,9 -0,9 - - 15 8 N 1027,1 30 0,0
22.04.2017 18:00:00 14,9 0,5 - - 11 6 N 1027,3 35 0,0
22.04.2017 17:00:00 14,9 0,4 - - 13 7 N 1027,4 10 0,0
22.04.2017 16:00:00 14,6 1,6 - - 11 6 N 1027,7 30 0,0
22.04.2017 15:00:00 14,5 0,7 - - 15 8 NW 1028,1 35 0,0
22.04.2017 14:00:00 14,2 3,4 - - 15 8 N 1028,6 10 0,0
22.04.2017 13:00:00 12,8 3,3 - - 11 6 NNW 1029,2 30 0,0
22.04.2017 12:00:00 12,7 4,3 - - 13 7 N 1029,6 10 0,0
22.04.2017 11:00:00 11,0 4,1 - - 13 7 NNW 1030,0 10 0,0
22.04.2017 10:00:00 10,3 3,8 10,7 10,2 15 8 N 1030,0 10 0,0
22.04.2017 09:00:00 10,3 3,3 - - 18 10 NNW 1030,0 10 0,0
22.04.2017 08:00:00 9,5 3,6 - - 18 10 NNW 1029,8 10 0,0
22.04.2017 07:00:00 9,0 4,7 - - 11 6 NNW 1029,5 10 0,0
22.04.2017 06:00:00 9,3 5,7 - - 13 7 NNW 1029,2 40 0,0
22.04.2017 05:00:00 8,4 6,6 - - 2 1 WNW 1028,9 26 0,0
22.04.2017 04:00:00 8,3 6,0 - - 4 2 WNW 1029,1 27 0,0
22.04.2017 03:00:00 9,4 6,2 - - 5 3 WNW 1029,3 30 0,0
22.04.2017 02:00:00 10,7 6,1 - - 9 5 NW 1029,7 10 0,0
22.04.2017 01:00:00 11,2 5,9 - - 11 6 WNW 1030,0 35 0,0
22.04.2017 00:00:00 11,1 6,3 - - 8 4 NW 1030,2 35 0,0
21.04.2017 23:00:00 11,3 6,2 - - 8 4 W 1030,1 30 0,0
21.04.2017 22:00:00 11,6 6,0 - - 8 4 W 1030,2 30 0,0
21.04.2017 21:00:00 12,0 6,1 - - 8 4 NW 1030,2 28 0,0
21.04.2017 20:00:00 12,6 6,2 - - 8 4 WNW 1030,1 10 0,0
21.04.2017 19:00:00 12,9 5,6 - - 9 5 WNW 1030,2 10 0,0
21.04.2017 18:00:00 13,2 5,3 - - 13 7 NW 1030,4 30 0,0
21.04.2017 17:00:00 13,8 5,2 - - 13 7 W 1030,5 10 0,0
21.04.2017 16:00:00 13,9 5,1 - - 13 7 NW 1030,9 10 0,0
21.04.2017 15:00:00 14,2 5,2 - - 15 8 NW 1031,3 10 0,0
21.04.2017 14:00:00 14,1 5,5 - - 15 8 NW 1031,8 10 0,0
21.04.2017 13:00:00 14,8 5,8 - - 18 10 NW 1032,1 10 0,0
21.04.2017 12:00:00 14,1 6,4 - - 13 7 WNW 1032,7 10 0,0
21.04.2017 11:00:00 13,9 7,7 - - 11 6 WNW 1033,0 10 0,0
21.04.2017 10:00:00 11,9 7,9 10,7 10,2 4 2 SSW 1033,2 10 0,0
21.04.2017 09:00:00 10,0 7,0 - - 4 2 S 1033,2 10 0,0
21.04.2017 08:00:00 8,3 7,1 - - 2 1 S 1033,2 10 0,0
21.04.2017 07:00:00 7,1 6,3 - - 5 3 SSW 1033,0 10 0,0
21.04.2017 06:00:00 5,9 5,4 - - 4 2 S 1032,9 10 0,0
21.04.2017 05:00:00 3,2 2,9 - - 2 1 ESE 1033,2 7 0,0
21.04.2017 04:00:00 5,8 5,2 - - 4 2 S 1033,4 8 0,0
21.04.2017 03:00:00 5,4 5,1 - - 2 1 SE 1033,7 8 0,0
21.04.2017 02:00:00 4,9 4,4 - - 4 2 ESE 1034,1 10 0,0
21.04.2017 01:00:00 4,5 4,3 - - 2 1 SSE 1034,3 10 0,0
21.04.2017 00:00:00 8,4 7,6 - - 2 1 S 1034,1 10 0,0

tt = temperature
td = dewpoint
tt -20cm = temperature -20cm
tt -100cm = temperature -100cm
ff = wind speed
dd = wind direction
ppp = reduced air pressure
vv = visibility
rr = precipitation

Next stations